Regional Weather Roundup
Issued by NWS

Home | Current Version | Previous Version | Graphics & Text | Print | Product List | Glossary On
Versions: 1 2 3 4 5 6 7 8 9 10 11 12 13 14 15 16 17 18 19 20 21 22 23 24 25 26 27 28 29 30 31 32 33 34 35 36 37 38 39 40 41 42 43 44 45 46 47 48 49 50
000
ASUS43 KLSX 171459
RWRMO

WEATHER SUMMARY FOR MISSOURI
NATIONAL WEATHER SERVICE SPRINGFIELD MO
1000 AM CDT WED SEP 17 2014

NOTE: "FAIR" INDICATES FEW OR NO CLOUDS BELOW 12,000 FEET WITH NO
       SIGNIFICANT WEATHER AND/OR OBSTRUCTIONS TO VISIBILITY.
       CURRENT SKY AND/OR WEATHER CONDITIONS ARE NOT AVAILABLE FOR
       CHILLICOTHE AND FARMINGTON.

MOZ001>031-035>038-043-044-053-054-171600-
...NORTHERN AND WESTERN MISSOURI...

CITY           SKY/WX    TMP DP  RH WIND       PRES   REMARKS
KANSAS CTY INT DRZL/FOG  64  63  96 E7        29.94R VSB 1
KANSAS C DTWN  CLOUDY    65  63  93 E6        29.93S FOG
LEE`S SUMMIT   CLOUDY    65  63  93 NE5       29.94S
ST JOSEPH      CLOUDY    64  61  90 E3        29.95R
KIRKSVILLE     CLOUDY    59  56  89 E6        30.00R

$$
MOZ066>068-077>081-088>096-101>105-171600-
...SOUTHWEST MISSOURI...

CITY           SKY/WX    TMP DP  RH WIND       PRES   REMARKS
SPRINGFIELD    TSTM      66  64  93 S9        29.98S FOG
JOPLIN         SUNNY     77  70  79 SW18G28   29.94S

$$
MOZ032>034-039>042-045>050-055>058-069>072-171600-
...CENTRAL MISSOURI...

CITY           SKY/WX    TMP DP  RH WIND       PRES   REMARKS
COLUMBIA         N/A    N/A N/A N/A MISG      29.97F
JEFFERSON CITY CLOUDY    61  59  93 E7        29.96F FOG
ROLLA          LGT RAIN  58  57  97 SE13      29.98F
SEDALIA        LGT RAIN  64  62  93 SE5       29.95S FOG
WHITEMAN AFB   LGT RAIN  64  63  94 S5        29.94R FOG
OSAGE BEACH    CLOUDY    63  61  94 SE5       29.96R

$$
MOZ051-052-059>065-171600-
...EAST CENTRAL MISSOURI...

CITY           SKY/WX    TMP DP  RH WIND       PRES   REMARKS
ST LOUIS INTL  CLOUDY    61  52  72 S9        30.05S
SPIRIT OF STL  CLOUDY    58  52  80 SE6       30.03S
ST CHARLES     CLOUDY    60  54  80 VRB3      30.04S

$$
MOZ072>076-082>087-097>100-106>115-171600-
...SOUTH CENTRAL AND SOUTHEAST MISSOURI...

CITY           SKY/WX    TMP DP  RH WIND       PRES   REMARKS
CAPE GIRARDEAU CLOUDY    61  55  81 SE3       30.06R
FARMINGTON     CLOUDY    55  54  94 SE3       30.09R
POPLAR BLUFF   CLOUDY    58  51  78 CALM      30.05R
WEST PLAINS    LGT RAIN  60  58  92 E5        30.06R FOG

$$


USA.gov is the U.S. government's official web portal to all federal, state and local government web resources and services.